QPF
0.02 0.02 0.02 0.03 0.03 0.02 0.02 0.02 0.02 0.02 0.01 0.01 0.01 0.01 0.01 0.02 0.02 0.02 0.02 0.03 0.04 0.04 0.04 0.04 0.03 0.03 0.02 0.02 0.03 0.03 0.03 0.04 0.04 0.03 0.03 0.02 0.02 0.02 0.03 0.03 0.04 0.05 0.07
0.02 0.02 0.02 0.03 0.04 0.03 0.02 0.01 0.01 0.02 0.02 0.01 0.01 0.01 0.01 0.01 0.02 0.02 0.02 0.02 0.04 0.04 0.04 0.04 0.04 0.04 0.03 0.03 0.02 0.02 0.03 0.03 0.03 0.03 0.02 0.02 0.02 0.02 0.02 0.03 0.04 0.04 0.05
0.02 0.02 0.02 0.02 0.03 0.03 0.02 0.01 0.01 0.01 0.01 0.01 0.01 0.01 0.02 0.02 0.02 0.02 0.02 0.02 0.02 0.03 0.03 0.03 0.04 0.04 0.04 0.04 0.04 0.03 0.03 0.03 0.02 0.02 0.02 0.02 0.03 0.02 0.02 0.03 0.03 0.04 0.04
0.02 0.02 0.02 0.02 0.02 0.02 0.02 0.01 0.01 0.01 0.01 0.01 0.01 0.01 0.01 0.01 0.01 0.02 0.02 0.02 0.02 0.03 0.02 0.03 0.04 0.03 0.03 0.03 0.03 0.03 0.03 0.03 0.02 0.02 0.02 0.02 0.02 0.02 0.02 0.02 0.03 0.04 0.04
0.03 0.03 0.03 0.03 0.02 0.02 0.02 0.01 0.01 0.01 0.01 0.01 0.01 0.01 0.01 0.01 0.01 0.01 0.02 0.02 0.02 0.02 0.02 0.02 0.02 0.03 0.03 0.02 0.02 0.01 0.02 0.02 0.02 0.02 0.02 0.02 0.02 0.02 0.02 0.02 0.02 0.03 0.04
0.04 0.04 0.06 0.05 0.03 0.03 0.02 0.02 0.02 0.02 0.02 0.02 0.02 0.02 0.02 0.02 0.02 0.03 0.02 0.02 0.02 0.02 0.02 0.02 0.02 0.02 0.02 0.02 0.02 0.01 0.01 0.02 0.02 0.02 0.02 0.02 0.01 0.01 0.01 0.01 0.02 0.02 0.03
0.04 0.04 0.04 0.04 0.04 0.03 0.03 0.02 0.02 0.02 0.02 0.02 0.02 0.03 0.03 0.03 0.03 0.03 0.02 0.02 0.02 0.02 0.02 0.03 0.02 0.02 0.02 0.02 0.02 0.01 0.01 0.02 0.02 0.02 0.03 0.02 0.01 0.01 0.01 0.01 0.01 0.01 0.02
0.04 0.05 0.05 0.05 0.05 0.04 0.04 0.04 0.03 0.02 0.02 0.02 0.02 0.02 0.02 0.02 0.02 0.02 0.02 0.02 0.02 0.02 0.02 0.02 0.02 0.02 0.02 0.02 0.02 0.02 0.01 0.02 0.02 0.02 0.02 0.02 0.01 0.02 0.01 0.01 0.01 0.01 0.01
0.04 0.05 0.04 0.04 0.04 0.05 0.05 0.05 0.05 0.04 0.03 0.02 0.01 0.01 0.01 0.01 0.02 0.02 0.02 0.02 0.02 0.03 0.02 0.02 0.02 0.02 0.03 0.03 0.02 0.02 0.02 0.02 0.02 0.03 0.02 0.02 0.02 0.03 0.04 0.02 0.02 0.02 0.03
0.05 0.05 0.04 0.04 0.03 0.03 0.02 0.02 0.03 0.03 0.03 0.02 0.02 0.02 0.02 0.01 0.02 0.03 0.03 0.03 0.03 0.03 0.02 0.02 0.02 0.02 0.03 0.03 0.02 0.02 0.02 0.01 0.02 0.03 0.03 0.03 0.03 0.04 0.05 0.03 0.02 0.02 0.03
0.04 0.04 0.05 0.04 0.04 0.03 0.02 0.01 0.01 0.02 0.02 0.02 0.02 0.02 0.02 0.02 0.02 0.03 0.03 0.03 0.03 0.03 0.03 0.03 0.02 0.02 0.02 0.03 0.02 0.02 0.02 0.01 0.02 0.03 0.04 0.04 0.04 0.04 0.05 0.03 0.02 0.01 0.01
0.03 0.04 0.04 0.04 0.04 0.04 0.03 0.02 0.01 0.01 0.02 0.02 0.03 0.03 0.02 0.02 0.02 0.02 0.03 0.04 0.04 0.03 0.03 0.03 0.04 0.03 0.03 0.03 0.02 0.02 0.02 0.02 0.02 0.03 0.04 0.05 0.05 0.04 0.05 0.04 0.02 0.02 0.01
0.03 0.04 0.04 0.04 0.04 0.04 0.03 0.03 0.02 0.01 0.01 0.02 0.02 0.02 0.02 0.02 0.03 0.03 0.03 0.04 0.05 0.05 0.05 0.05 0.05 0.05 0.04 0.04 0.03 0.02 0.02 0.02 0.03 0.04 0.04 0.04 0.04 0.04 0.04 0.04 0.03 0.02 0.02
0.02 0.02 0.03 0.04 0.04 0.04 0.04 0.03 0.02 0.02 0.02 0.02 0.02 0.02 0.02 0.02 0.03 0.03 0.03 0.03 0.05 0.05 0.05 0.06 0.06 0.05 0.05 0.04 0.03 0.03 0.02 0.02 0.03 0.04 0.04 0.05 0.05 0.04 0.03 0.03 0.03 0.03 0.04
0.01 0.01 0.02 0.03 0.04 0.04 0.04 0.04 0.03 0.02 0.02 0.02 0.02 0.02 0.02 0.02 0.02 0.02 0.03 0.03 0.03 0.04 0.04 0.04 0.04 0.04 0.04 0.03 0.03 0.02 0.02 0.02 0.03 0.03 0.04 0.05 0.05 0.04 0.03 0.03 0.03 0.03 0.03
0.01 0.02 0.03 0.03 0.03 0.03 0.03 0.03 0.03 0.03 0.02 0.02 0.02 0.02 0.02 0.02 0.02 0.02 0.02 0.02 0.03 0.03 0.03 0.03 0.03 0.03 0.03 0.02 0.02 0.02 0.02 0.02 0.02 0.03 0.03 0.04 0.04 0.04 0.04 0.04 0.03 0.03 0.03
0.01 0.01 0.02 0.03 0.03 0.03 0.02 0.02 0.02 0.02 0.03 0.03 0.02 0.02 0.02 0.02 0.02 0.02 0.02 0.02 0.02 0.02 0.02 0.02 0.02 0.02 0.02 0.02 0.02 0.02 0.02 0.02 0.02 0.02 0.03 0.04 0.03 0.03 0.04 0.04 0.04 0.03 0.03
0.02 0.02 0.02 0.02 0.02 0.02 0.02 0.02 0.02 0.02 0.02 0.02 0.02 0.02 0.02 0.02 0.02 0.02 0.02 0.02 0.02 0.02 0.02 0.02 0.02 0.02 0.02 0.02 0.02 0.02 0.02 0.02 0.02 0.02 0.03 0.03 0.03 0.04 0.04 0.04 0.04 0.04 0.04
0.03 0.02 0.02 0.02 0.02 0.02 0.02 0.02 0.03 0.02 0.02 0.01 0.01 0.01 0.01 0.01 0.02 0.02 0.01 0.01 0.02 0.02 0.03 0.02 0.02 0.02 0.02 0.02 0.02 0.02 0.02 0.02 0.02 0.03 0.03 0.03 0.03 0.04 0.04 0.04 0.04 0.04 0.04
0.02 0.02 0.02 0.02 0.02 0.02 0.02 0.02 0.02 0.02 0.02 0.02 0.01 0.01 0.01 0.01 0.01 0.01 0.01 0.01 0.02 0.02 0.03 0.02 0.02 0.02 0.02 0.03 0.02 0.02 0.02 0.02 0.02 0.03 0.03 0.03 0.03 0.04 0.04 0.04 0.04 0.04 0.04
0.02 0.02 0.01 0.01 0.02 0.02 0.02 0.02 0.02 0.02 0.02 0.02 0.02 0.01 0.02 0.02 0.01 0.01 0.01 0.01 0.01 0.02 0.02 0.02 0.02 0.02 0.02 0.03 0.03 0.02 0.03 0.03 0.03 0.03 0.03 0.03 0.03 0.04 0.04 0.04 0.04 0.04 0.04
0.02 0.02 0.02 0.02 0.02 0.02 0.01 0.01 0.01 0.01 0.02 0.02 0.02 0.01 0.02 0.02 0.02 0.01 0.01 0.01 0.01 0.02 0.02 0.02 0.02 0.02 0.02 0.02 0.03 0.03 0.03 0.03 0.03 0.03 0.03 0.03 0.03 0.03 0.03 0.03 0.03 0.03 0.03
0.04 0.03 0.03 0.02 0.02 0.01 0.01 0.01 0.01 0.01 0.01 0.01 0.01 0.01 0.01 0.01 0.01 0.01 0.01 0.01 0.01 0.01 0.01 0.02 0.02 0.02 0.02 0.02 0.02 0.02 0.02 0.02 0.02 0.03 0.03 0.03 0.03 0.03 0.03 0.03 0.02 0.02 0.03
0.03 0.03 0.03 0.03 0.02 0.02 0.01 0.01 0.01 0.01 0.01 0.01 0.01 0.01 0.01 0.01 0.01 0.01 0.01 0.01 0.01 0.01 0.01 0.02 0.02 0.02 0.02 0.02 0.02 0.02 0.02 0.02 0.02 0.02 0.02 0.02 0.02 0.02 0.02 0.02 0.02 0.02 0.02
0.02 0.02 0.02 0.02 0.01 0.01 0.01 0.01 0.00 0.00 0.01 0.01 0.01 0.01 0.01 0.01 0.01 0.01 0.01 0.01 0.01 0.01 0.02 0.02 0.02 0.02 0.01 0.01 0.01 0.01 0.01 0.02 0.02 0.02 0.02 0.02 0.02 0.02 0.02 0.02 0.02 0.02 0.02
0.00 0.01 0.01 0.01 0.01 0.01 0.00 0.00 0.00 0.00 0.01 0.01 0.01 0.01 0.01 0.01 0.01 0.01 0.01 0.01 0.01 0.01 0.01 0.02 0.02 0.02 0.01 0.01 0.01 0.01 0.01 0.01 0.02 0.02 0.02 0.03 0.02 0.02 0.02 0.02 0.02 0.02 0.02
MSLP
1017.19 1016.63 1016.10 1015.64 1015.25 1014.94 1014.72 1014.58 1014.51 1014.52 1014.59 1014.72 1014.88 1015.08 1015.30 1015.53 1015.75 1015.96 1016.16 1016.33 1016.48 1016.61 1016.73 1016.83 1016.94 1017.07 1017.23 1017.43 1017.69 1018.01 1018.41 1018.89 1019.45 1020.07 1020.74 1021.44 1022.14 1022.83 1023.47 1024.04 1024.55 1024.98 1025.35
1017.61 1017.00 1016.41 1015.85 1015.36 1014.94 1014.61 1014.36 1014.19 1014.11 1014.11 1014.17 1014.30 1014.48 1014.69 1014.93 1015.18 1015.44 1015.68 1015.91 1016.12 1016.30 1016.47 1016.61 1016.76 1016.90 1017.06 1017.25 1017.49 1017.79 1018.17 1018.62 1019.16 1019.76 1020.42 1021.12 1021.83 1022.53 1023.19 1023.79 1024.33 1024.79 1025.17
1018.01 1017.38 1016.74 1016.11 1015.53 1015.02 1014.58 1014.22 1013.94 1013.76 1013.66 1013.64 1013.70 1013.83 1014.01 1014.23 1014.49 1014.76 1015.05 1015.33 1015.60 1015.85 1016.08 1016.30 1016.50 1016.69 1016.89 1017.11 1017.37 1017.67 1018.03 1018.47 1018.97 1019.54 1020.17 1020.84 1021.53 1022.21 1022.87 1023.48 1024.02 1024.51 1024.92
1018.38 1017.74 1017.08 1016.42 1015.78 1015.18 1014.65 1014.19 1013.81 1013.51 1013.31 1013.19 1013.16 1013.20 1013.32 1013.49 1013.72 1013.99 1014.29 1014.61 1014.93 1015.24 1015.55 1015.85 1016.13 1016.40 1016.67 1016.95 1017.24 1017.57 1017.94 1018.36 1018.83 1019.36 1019.95 1020.57 1021.21 1021.85 1022.49 1023.09 1023.64 1024.14 1024.59
1018.71 1018.09 1017.43 1016.75 1016.07 1015.43 1014.82 1014.28 1013.80 1013.40 1013.08 1012.85 1012.70 1012.64 1012.67 1012.77 1012.94 1013.17 1013.46 1013.78 1014.13 1014.49 1014.87 1015.24 1015.61 1015.97 1016.32 1016.68 1017.04 1017.41 1017.80 1018.22 1018.68 1019.17 1019.70 1020.26 1020.85 1021.45 1022.04 1022.62 1023.18 1023.70 1024.17
1019.01 1018.43 1017.78 1017.11 1016.42 1015.73 1015.08 1014.46 1013.90 1013.40 1012.97 1012.62 1012.36 1012.19 1012.10 1012.10 1012.19 1012.36 1012.59 1012.89 1013.24 1013.63 1014.04 1014.47 1014.92 1015.36 1015.80 1016.24 1016.67 1017.10 1017.54 1017.98 1018.43 1018.90 1019.39 1019.90 1020.44 1020.99 1021.55 1022.11 1022.66 1023.20 1023.70
1019.30 1018.74 1018.12 1017.46 1016.77 1016.07 1015.38 1014.71 1014.08 1013.49 1012.96 1012.50 1012.12 1011.83 1011.63 1011.52 1011.51 1011.58 1011.74 1011.99 1012.30 1012.67 1013.10 1013.56 1014.05 1014.56 1015.08 1015.60 1016.12 1016.62 1017.11 1017.59 1018.06 1018.53 1019.00 1019.48 1019.98 1020.49 1021.03 1021.57 1022.13 1022.68 1023.21
1019.56 1019.03 1018.43 1017.78 1017.09 1016.39 1015.67 1014.97 1014.28 1013.62 1013.01 1012.45 1011.97 1011.57 1011.26 1011.04 1010.91 1010.88 1010.95 1011.11 1011.36 1011.69 1012.09 1012.54 1013.05 1013.60 1014.18 1014.77 1015.35 1015.93 1016.49 1017.03 1017.54 1018.04 1018.52 1019.00 1019.49 1020.00 1020.52 1021.06 1021.62 1022.19 1022.74
1019.79 1019.26 1018.68 1018.04 1017.36 1016.65 1015.92 1015.18 1014.45 1013.74 1013.07 1012.44 1011.88 1011.38 1010.97 1010.65 1010.42 1010.29 1010.25 1010.32 1010.47 1010.73 1011.06 1011.49 1011.98 1012.53 1013.14 1013.77 1014.43 1015.08 1015.71 1016.32 1016.90 1017.45 1017.98 1018.50 1019.01 1019.53 1020.07 1020.62 1021.19 1021.77 1022.34
1019.95 1019.42 1018.83 1018.20 1017.52 1016.80 1016.07 1015.32 1014.56 1013.82 1013.11 1012.43 1011.81 1011.26 1010.77 1010.37 1010.05 1009.82 1009.68 1009.63 1009.69 1009.85 1010.10 1010.45 1010.90 1011.44 1012.04 1012.70 1013.40 1014.12 1014.83 1015.52 1016.19 1016.82 1017.42 1018.00 1018.57 1019.13 1019.70 1020.28 1020.86 1021.46 1022.04
1020.01 1019.47 1018.88 1018.24 1017.56 1016.85 1016.11 1015.35 1014.59 1013.84 1013.11 1012.42 1011.77 1011.17 1010.64 1010.17 1009.78 1009.47 1009.23 1009.09 1009.04 1009.09 1009.25 1009.52 1009.90 1010.38 1010.97 1011.63 1012.36 1013.13 1013.91 1014.69 1015.44 1016.17 1016.87 1017.53 1018.17 1018.79 1019.41 1020.02 1020.63 1021.24 1021.82
1019.97 1019.41 1018.81 1018.17 1017.49 1016.78 1016.05 1015.30 1014.55 1013.80 1013.07 1012.38 1011.72 1011.11 1010.55 1010.05 1009.61 1009.23 1008.91 1008.68 1008.53 1008.48 1008.54 1008.71 1009.01 1009.44 1009.98 1010.64 1011.38 1012.18 1013.02 1013.87 1014.72 1015.54 1016.33 1017.09 1017.81 1018.50 1019.17 1019.83 1020.47 1021.09 1021.67
1019.82 1019.25 1018.65 1018.00 1017.33 1016.62 1015.90 1015.17 1014.43 1013.70 1012.99 1012.30 1011.65 1011.05 1010.48 1009.95 1009.48 1009.05 1008.67 1008.36 1008.13 1007.99 1007.96 1008.05 1008.27 1008.63 1009.13 1009.76 1010.50 1011.32 1012.20 1013.11 1014.03 1014.94 1015.82 1016.66 1017.46 1018.23 1018.96 1019.66 1020.32 1020.95 1021.53
1019.59 1019.01 1018.41 1017.76 1017.09 1016.40 1015.69 1014.97 1014.25 1013.54 1012.84 1012.17 1011.54 1010.93 1010.36 1009.83 1009.33 1008.87 1008.45 1008.08 1007.79 1007.58 1007.48 1007.50 1007.66 1007.96 1008.41 1009.01 1009.74 1010.57 1011.47 1012.42 1013.40 1014.37 1015.32 1016.24 1017.11 1017.93 1018.71 1019.45 1020.13 1020.77 1021.34
1019.31 1018.73 1018.12 1017.48 1016.81 1016.13 1015.42 1014.72 1014.01 1013.31 1012.62 1011.96 1011.33 1010.72 1010.15 1009.60 1009.09 1008.60 1008.15 1007.76 1007.43 1007.18 1007.03 1007.01 1007.12 1007.39 1007.81 1008.38 1009.09 1009.91 1010.83 1011.80 1012.81 1013.82 1014.82 1015.78 1016.70 1017.58 1018.40 1019.16 1019.86 1020.51 1021.08
1019.01 1018.43 1017.82 1017.18 1016.52 1015.83 1015.13 1014.42 1013.70 1013.00 1012.30 1011.63 1010.99 1010.37 1009.77 1009.21 1008.68 1008.17 1007.71 1007.30 1006.96 1006.70 1006.54 1006.51 1006.61 1006.86 1007.27 1007.83 1008.53 1009.34 1010.25 1011.23 1012.24 1013.27 1014.29 1015.29 1016.24 1017.15 1017.99 1018.78 1019.50 1020.15 1020.73
1018.73 1018.15 1017.53 1016.88 1016.21 1015.51 1014.80 1014.06 1013.33 1012.60 1011.88 1011.17 1010.49 1009.84 1009.21 1008.62 1008.07 1007.56 1007.09 1006.69 1006.35 1006.11 1005.97 1005.95 1006.07 1006.34 1006.75 1007.31 1008.01 1008.81 1009.72 1010.69 1011.70 1012.73 1013.76 1014.76 1015.73 1016.65 1017.52 1018.32 1019.06 1019.72 1020.31
1018.48 1017.88 1017.25 1016.59 1015.90 1015.18 1014.43 1013.66 1012.89 1012.11 1011.34 1010.58 1009.85 1009.15 1008.49 1007.86 1007.29 1006.76 1006.30 1005.91 1005.61 1005.40 1005.31 1005.33 1005.49 1005.79 1006.23 1006.81 1007.51 1008.31 1009.21 1010.17 1011.17 1012.19 1013.21 1014.22 1015.19 1016.12 1017.01 1017.83 1018.58 1019.27 1019.87
1018.24 1017.63 1016.98 1016.30 1015.58 1014.82 1014.04 1013.22 1012.39 1011.56 1010.73 1009.91 1009.12 1008.36 1007.65 1006.99 1006.40 1005.87 1005.42 1005.05 1004.79 1004.63 1004.59 1004.67 1004.89 1005.24 1005.71 1006.32 1007.03 1007.84 1008.73 1009.68 1010.66 1011.67 1012.69 1013.69 1014.67 1015.61 1016.51 1017.35 1018.13 1018.84 1019.47
1018.01 1017.38 1016.71 1016.01 1015.25 1014.46 1013.62 1012.76 1011.88 1010.98 1010.09 1009.22 1008.37 1007.57 1006.81 1006.13 1005.52 1004.99 1004.55 1004.21 1003.99 1003.89 1003.91 1004.05 1004.32 1004.72 1005.24 1005.87 1006.60 1007.42 1008.30 1009.24 1010.22 1011.21 1012.22 1013.22 1014.21 1015.16 1016.07 1016.94 1017.74 1018.48 1019.13
1017.77 1017.12 1016.44 1015.70 1014.92 1014.08 1013.21 1012.31 1011.38 1010.44 1009.51 1008.59 1007.70 1006.87 1006.09 1005.39 1004.77 1004.25 1003.84 1003.53 1003.35 1003.29 1003.36 1003.56 1003.87 1004.31 1004.86 1005.52 1006.26 1007.08 1007.96 1008.89 1009.85 1010.84 1011.84 1012.84 1013.83 1014.80 1015.73 1016.61 1017.44 1018.20 1018.87
1017.50 1016.85 1016.14 1015.38 1014.58 1013.72 1012.82 1011.89 1010.94 1009.98 1009.03 1008.10 1007.21 1006.37 1005.59 1004.90 1004.29 1003.79 1003.40 1003.12 1002.97 1002.94 1003.05 1003.28 1003.62 1004.09 1004.65 1005.31 1006.06 1006.87 1007.74 1008.66 1009.61 1010.59 1011.58 1012.58 1013.57 1014.54 1015.49 1016.39 1017.23 1018.00 1018.69
1017.21 1016.54 1015.83 1015.06 1014.24 1013.38 1012.48 1011.55 1010.61 1009.66 1008.73 1007.82 1006.95 1006.14 1005.40 1004.73 1004.16 1003.68 1003.31 1003.06 1002.93 1002.93 1003.05 1003.29 1003.64 1004.10 1004.66 1005.31 1006.04 1006.84 1007.69 1008.58 1009.52 1010.48 1011.46 1012.45 1013.43 1014.40 1015.34 1016.24 1017.09 1017.85 1018.53
1016.87 1016.20 1015.49 1014.72 1013.91 1013.06 1012.18 1011.28 1010.38 1009.48 1008.60 1007.75 1006.94 1006.19 1005.50 1004.89 1004.37 1003.93 1003.60 1003.37 1003.26 1003.26 1003.37 1003.60 1003.94 1004.38 1004.92 1005.54 1006.24 1007.00 1007.82 1008.69 1009.59 1010.52 1011.48 1012.44 1013.41 1014.35 1015.27 1016.15 1016.97 1017.71 1018.37
1016.50 1015.84 1015.13 1014.37 1013.58 1012.76 1011.92 1011.08 1010.24 1009.41 1008.61 1007.85 1007.14 1006.48 1005.87 1005.34 1004.87 1004.49 1004.19 1003.99 1003.89 1003.89 1003.99 1004.20 1004.51 1004.92 1005.41 1006.00 1006.65 1007.37 1008.15 1008.97 1009.83 1010.72 1011.63 1012.55 1013.47 1014.37 1015.25 1016.08 1016.85 1017.55 1018.15
1016.09 1015.44 1014.74 1014.01 1013.25 1012.48 1011.70 1010.92 1010.16 1009.43 1008.74 1008.08 1007.48 1006.92 1006.41 1005.97 1005.58 1005.26 1005.01 1004.83 1004.74 1004.74 1004.83 1005.01 1005.29 1005.66 1006.12 1006.65 1007.26 1007.93 1008.65 1009.42 1010.22 1011.05 1011.90 1012.75 1013.60 1014.44 1015.25 1016.01 1016.71 1017.33 1017.87
Thickness
5518 5517 5517 5517 5516 5516 5517 5517 5517 5517 5516 5517 5516 5516 5515 5515 5515 5516 5516 5516 5516 5516 5516 5517 5518 5518 5518 5518 5518 5518 5519 5520 5520 5517 5514 5512 5511 5510 5508 5507 5506 5505 5505
5509 5509 5508 5507 5507 5507 5507 5508 5508 5508 5508 5508 5508 5507 5507 5507 5507 5508 5508 5508 5508 5508 5508 5508 5508 5507 5508 5508 5508 5508 5508 5508 5508 5507 5504 5501 5500 5499 5498 5496 5495 5494 5494
5500 5499 5499 5499 5499 5499 5499 5499 5499 5499 5499 5499 5498 5499 5498 5498 5498 5499 5500 5499 5500 5500 5500 5500 5499 5498 5499 5498 5497 5497 5497 5496 5496 5496 5494 5490 5489 5487 5486 5484 5484 5483 5482
5491 5490 5490 5490 5490 5490 5489 5490 5490 5490 5490 5490 5490 5490 5489 5489 5489 5490 5490 5491 5491 5491 5490 5490 5490 5489 5489 5488 5487 5487 5486 5484 5484 5483 5482 5480 5478 5476 5473 5473 5472 5471 5470
5481 5482 5481 5480 5480 5479 5479 5480 5480 5480 5480 5480 5480 5481 5480 5480 5481 5481 5481 5481 5481 5481 5480 5479 5479 5478 5478 5477 5477 5476 5474 5473 5472 5471 5470 5469 5468 5465 5464 5462 5461 5460 5459
5472 5472 5471 5470 5470 5470 5470 5470 5471 5471 5471 5471 5471 5471 5471 5471 5470 5470 5470 5470 5470 5470 5469 5469 5468 5467 5466 5465 5464 5463 5462 5462 5461 5460 5460 5459 5459 5456 5454 5451 5449 5448 5448
5462 5462 5462 5461 5461 5461 5460 5461 5462 5462 5462 5463 5463 5462 5461 5461 5460 5459 5459 5459 5459 5459 5458 5458 5457 5456 5454 5454 5453 5451 5450 5449 5449 5449 5449 5449 5447 5445 5442 5439 5438 5437 5437
5451 5451 5451 5451 5450 5450 5451 5452 5452 5452 5453 5453 5453 5452 5452 5451 5450 5450 5448 5448 5448 5448 5447 5447 5446 5445 5443 5442 5441 5440 5440 5439 5438 5436 5437 5437 5435 5432 5430 5429 5426 5424 5422
5440 5440 5440 5440 5440 5440 5441 5441 5441 5442 5443 5443 5443 5443 5443 5442 5440 5439 5438 5437 5437 5437 5436 5435 5434 5434 5432 5430 5429 5429 5428 5427 5424 5423 5423 5422 5420 5418 5416 5414 5412 5410 5410
5428 5428 5428 5428 5429 5430 5431 5431 5430 5431 5432 5432 5432 5432 5432 5432 5430 5429 5427 5427 5427 5426 5425 5424 5422 5422 5421 5419 5417 5417 5416 5416 5413 5412 5410 5409 5408 5406 5403 5403 5402 5399 5398
5416 5416 5417 5417 5418 5419 5420 5420 5420 5420 5421 5421 5421 5421 5421 5421 5420 5418 5417 5416 5416 5415 5414 5413 5412 5410 5409 5407 5406 5405 5405 5403 5401 5400 5400 5399 5396 5394 5393 5391 5390 5388 5385
5404 5405 5406 5406 5407 5408 5409 5410 5410 5410 5411 5411 5410 5410 5409 5408 5408 5407 5406 5405 5404 5404 5403 5402 5401 5399 5397 5396 5394 5393 5391 5389 5389 5389 5388 5387 5385 5383 5381 5379 5377 5375 5373
5392 5393 5394 5394 5395 5396 5398 5399 5399 5400 5400 5400 5399 5399 5398 5396 5395 5394 5393 5392 5392 5391 5391 5390 5389 5387 5385 5384 5383 5381 5379 5378 5378 5377 5377 5376 5374 5372 5369 5366 5363 5361 5358
5381 5381 5382 5383 5384 5385 5386 5387 5387 5388 5388 5388 5387 5386 5385 5384 5383 5382 5381 5380 5379 5379 5379 5377 5376 5375 5373 5372 5370 5369 5367 5367 5366 5366 5365 5363 5361 5358 5356 5353 5350 5347 5345
5368 5369 5370 5371 5372 5373 5373 5373 5374 5375 5375 5375 5375 5374 5373 5373 5371 5369 5369 5369 5368 5368 5367 5365 5364 5363 5361 5359 5357 5356 5355 5354 5353 5352 5351 5349 5347 5345 5342 5339 5336 5334 5332
5355 5356 5357 5358 5360 5361 5362 5362 5361 5361 5361 5360 5360 5360 5360 5359 5359 5358 5357 5356 5356 5355 5354 5353 5351 5350 5348 5346 5345 5343 5342 5341 5340 5339 5338 5336 5334 5332 5329 5326 5323 5321 5320
5342 5343 5344 5346 5347 5348 5349 5350 5351 5350 5349 5348 5348 5347 5347 5347 5347 5346 5345 5344 5344 5343 5342 5340 5338 5336 5335 5333 5332 5330 5329 5327 5326 5325 5324 5323 5321 5318 5316 5314 5312 5310 5308
5329 5331 5332 5334 5335 5336 5337 5338 5338 5338 5338 5338 5336 5335 5335 5335 5334 5334 5333 5332 5331 5331 5329 5327 5325 5324 5322 5321 5319 5318 5316 5315 5314 5313 5312 5310 5309 5307 5305 5303 5301 5299 5298
5317 5319 5320 5321 5323 5324 5324 5325 5326 5325 5326 5325 5324 5324 5323 5322 5322 5321 5320 5320 5319 5317 5316 5314 5313 5311 5310 5308 5307 5306 5305 5304 5303 5301 5301 5299 5298 5296 5294 5293 5291 5289 5287
5305 5306 5308 5309 5310 5311 5312 5313 5313 5313 5313 5313 5312 5312 5311 5310 5310 5308 5307 5306 5305 5304 5303 5302 5301 5300 5298 5297 5296 5295 5294 5293 5292 5291 5291 5289 5288 5286 5285 5283 5282 5280 5278
5294 5295 5296 5298 5299 5299 5300 5301 5301 5301 5301 5301 5300 5299 5298 5298 5297 5296 5295 5294 5293 5293 5292 5291 5290 5289 5288 5287 5286 5285 5284 5284 5283 5282 5281 5279 5278 5277 5276 5274 5273 5271 5269
5282 5284 5285 5286 5287 5288 5289 5289 5290 5289 5289 5289 5288 5287 5287 5286 5285 5284 5284 5283 5282 5282 5281 5281 5280 5279 5278 5277 5277 5276 5276 5275 5274 5273 5271 5270 5269 5268 5267 5266 5264 5263 5262
5272 5273 5274 5275 5275 5277 5278 5278 5278 5278 5278 5277 5277 5276 5275 5275 5274 5273 5273 5272 5272 5271 5271 5270 5270 5270 5269 5269 5268 5267 5267 5267 5266 5264 5263 5262 5261 5260 5259 5258 5256 5255 5254
5261 5262 5263 5264 5265 5266 5266 5267 5266 5266 5266 5266 5265 5265 5264 5263 5263 5262 5262 5261 5261 5261 5261 5261 5261 5261 5260 5260 5259 5259 5258 5257 5256 5255 5254 5253 5253 5252 5251 5250 5249 5248 5247
5251 5251 5252 5253 5254 5255 5255 5255 5255 5255 5254 5254 5254 5253 5253 5252 5252 5252 5252 5252 5251 5252 5252 5252 5252 5252 5252 5251 5251 5250 5249 5249 5248 5247 5247 5247 5247 5246 5245 5244 5243 5242 5240
5240 5240 5241 5242 5242 5243 5243 5244 5243 5243 5243 5243 5243 5243 5242 5242 5242 5242 5242 5242 5243 5243 5243 5243 5244 5244 5243 5243 5243 5242 5242 5242 5241 5241 5240 5241 5240 5240 5239 5238 5237 5236 5234